Probability
45 77 84 84 81 81 81 81 77 81 81 81 77 74 77 77 81 81 81 81 81 81 84 84 87 84 81 77 71 71 71 71 65 71 65 65 61 71 65 61 65 48 65
42 77 87 81 81 84 81 81 81 81 84 77 77 74 74 77 77 81 81 81 81 77 84 84 84 87 84 77 81 71 68 71 74 61 58 58 61 71 74 65 61 55 68
48 65 84 84 81 81 77 81 77 74 71 77 71 74 74 74 71 74 81 81 81 81 77 81 81 81 81 77 68 68 71 65 65 65 61 52 61 71 68 68 58 65 71
52 55 68 84 81 77 77 77 74 74 68 68 71 71 71 71 71 71 74 77 77 77 81 77 77 81 74 68 58 61 55 61 58 52 19 32 39 68 74 71 61 65 65
45 55 71 81 81 74 74 71 68 65 61 61 65 68 68 68 68 68 68 71 71 71 71 65 61 61 65 61 65 55 61 48 48 26 10 13 26 61 74 68 68 61 65
42 58 74 84 81 77 81 71 71 61 61 65 68 65 61 68 71 74 68 71 68 65 65 65 58 58 65 68 65 61 55 61 35 10 10 6 23 61 74 74 65 58 61
32 45 71 84 81 77 74 68 61 65 65 65 68 68 65 71 71 71 68 74 68 65 65 58 61 65 61 61 61 65 61 52 16 10 3 10 19 52 68 74 68 68 68
35 39 65 84 77 77 71 65 65 65 65 68 68 74 77 77 74 65 74 71 71 65 61 58 55 55 55 52 55 55 58 39 19 10 3 0 32 65 68 68 74 71 68
29 35 48 58 65 74 65 61 58 61 65 68 65 68 74 74 68 61 61 61 65 58 61 52 52 55 52 45 52 52 55 45 23 3 3 0 29 65 68 68 68 71 65
23 29 29 32 32 39 45 52 58 58 58 61 65 65 71 68 61 61 61 61 61 61 55 55 55 52 48 45 48 68 61 42 26 6 3 3 48 58 61 65 65 74 61
26 19 23 23 23 26 35 42 45 52 58 58 55 65 58 48 45 52 61 58 58 58 55 48 55 48 52 48 55 61 45 19 16 6 0 32 52 61 65 65 74 68 55
23 19 13 16 16 23 26 26 29 35 39 32 32 32 32 16 19 35 45 68 58 58 55 52 52 52 45 26 23 39 16 10 6 10 6 55 58 68 65 74 68 61 61
23 19 13 13 16 16 16 23 19 16 19 23 19 13 16 13 13 16 19 32 45 39 39 35 32 26 16 10 13 10 6 6 6 6 16 61 61 61 61 65 68 61 58
23 13 16 16 13 10 13 16 10 10 10 10 10 10 16 13 10 10 10 23 16 16 16 19 10 10 6 10 6 6 6 3 3 3 16 58 58 61 61 52 55 65 58
16 6 3 10 16 10 10 10 10 6 10 10 16 16 16 10 10 3 6 10 10 3 6 3 6 6 3 6 6 10 10 3 3 6 6 52 61 65 58 52 48 52 48
6 6 3 10 6 10 13 10 6 6 10 10 10 13 6 6 6 6 10 10 10 3 3 6 3 3 3 3 3 6 6 0 3 3 0 13 52 55 58 48 45 39 42
10 6 16 13 10 6 6 6 6 10 10 6 6 6 6 6 6 6 6 10 6 3 3 6 3 3 3 3 3 3 3 0 0 3 0 3 6 29 52 52 42 42 42
10 6 13 32 10 10 10 10 6 6 3 3 3 6 6 6 6 3 3 6 3 3 3 3 3 3 3 3 3 3 3 3 6 6 6 3 6 6 19 32 42 45 39
6 10 16 16 19 13 16 13 6 3 3 3 3 6 6 6 10 6 3 3 3 3 3 3 3 3 3 3 6 6 3 3 6 6 6 3 0 3 3 6 32 32 42
6 10 16 16 13 16 13 13 6 10 3 3 3 6 6 10 6 10 3 3 3 3 3 3 3 3 3 3 3 3 3 3 3 3 3 3 3 3 3 3 3 6 29
3 13 13 16 23 19 16 16 13 10 10 10 6 6 3 3 3 3 6 6 3 3 3 3 3 3 3 3 3 3 3 3 3 3 3 3 3 3 3 3 3 0 3
13 16 23 23 19 19 13 16 10 6 10 10 10 10 6 10 6 6 3 6 6 3 3 3 3 3 3 3 3 3 3 3 0 3 3 3 3 3 0 0 0 0 0
13 13 13 19 19 19 16 10 10 3 3 3 6 3 3 10 10 6 6 0 3 3 3 3 3 3 3 3 3 3 3 3 0 0 0 3 3 0 0 0 0 0 0
13 13 13 16 16 19 10 10 10 6 3 3 3 3 3 3 3 3 3 3 3 3 3 3 3 3 3 3 3 3 3 0 0 3 0 0 0 0 0 0 0 0 0
13 13 16 16 16 13 10 10 6 6 6 3 3 3 0 3 3 3 3 6 6 3 3 3 3 3 3 3 3 3 3 3 3 3 3 0 0 0 0 0 0 0 0
13 13 16 16 13 13 13 6 6 6 6 3 3 3 0 0 0 3 3 6 6 3 3 3 3 3 3 3 3 3 3 3 3 3 3 0 0 0 0 0 0 0 0
Height
5886 5885 5884 5883 5883 5882 5881 5880 5880 5879 5879 5878 5878 5877 5877 5876 5876 5876 5875 5875 5875 5875 5876 5876 5876 5876 5876 5876 5876 5877 5877 5878 5878 5878 5878 5878 5878 5879 5879 5880 5880 5881 5882
5885 5884 5883 5882 5882 5881 5880 5879 5879 5878 5878 5877 5876 5876 5876 5875 5875 5875 5875 5875 5875 5874 5875 5875 5875 5875 5875 5876 5876 5876 5877 5877 5877 5877 5878 5878 5878 5878 5878 5879 5880 5881 5881
5884 5883 5882 5881 5881 5880 5879 5878 5877 5877 5876 5876 5875 5875 5874 5874 5874 5874 5874 5874 5874 5874 5874 5874 5874 5874 5874 5875 5875 5875 5876 5876 5876 5876 5877 5877 5877 5878 5878 5878 5879 5880 5881
5883 5882 5881 5880 5879 5878 5878 5877 5876 5875 5875 5874 5874 5873 5873 5873 5873 5873 5872 5872 5872 5872 5872 5872 5873 5873 5873 5873 5874 5874 5874 5875 5875 5875 5876 5876 5876 5877 5877 5878 5879 5879 5880
5882 5881 5880 5879 5878 5877 5876 5875 5874 5874 5873 5872 5872 5872 5871 5871 5871 5871 5871 5871 5871 5871 5871 5871 5871 5871 5871 5872 5872 5872 5873 5873 5873 5874 5874 5875 5875 5876 5876 5877 5878 5878 5879
5880 5880 5878 5877 5876 5876 5875 5874 5873 5872 5871 5870 5870 5870 5869 5869 5869 5869 5869 5869 5869 5869 5869 5869 5869 5869 5870 5870 5870 5870 5871 5871 5872 5872 5873 5874 5874 5875 5875 5876 5877 5877 5878
5879 5878 5877 5876 5875 5874 5873 5872 5871 5870 5869 5868 5868 5867 5867 5867 5867 5867 5867 5867 5867 5867 5867 5867 5867 5867 5867 5868 5868 5868 5869 5870 5870 5870 5871 5872 5873 5873 5874 5875 5875 5876 5877
5877 5876 5875 5874 5873 5872 5871 5870 5869 5868 5867 5866 5865 5865 5865 5865 5865 5865 5865 5865 5865 5865 5865 5865 5865 5865 5865 5865 5866 5866 5866 5867 5868 5869 5869 5870 5871 5872 5873 5873 5874 5875 5875
5875 5875 5874 5873 5872 5871 5869 5868 5867 5866 5865 5864 5863 5863 5863 5862 5862 5862 5862 5862 5862 5862 5862 5862 5862 5863 5863 5863 5863 5864 5864 5864 5865 5866 5867 5868 5869 5869 5870 5871 5872 5873 5874
5874 5873 5872 5871 5870 5869 5867 5866 5865 5864 5863 5862 5861 5860 5860 5860 5859 5859 5859 5859 5859 5860 5860 5860 5860 5860 5860 5860 5860 5861 5861 5862 5863 5863 5864 5865 5866 5867 5868 5869 5870 5870 5871
5872 5871 5870 5869 5868 5867 5866 5864 5863 5862 5861 5860 5859 5858 5857 5857 5857 5857 5857 5857 5856 5856 5857 5857 5857 5857 5857 5857 5857 5858 5858 5859 5860 5861 5861 5862 5863 5864 5865 5866 5867 5868 5868
5871 5870 5868 5867 5866 5865 5864 5862 5861 5860 5858 5857 5856 5855 5854 5854 5854 5854 5853 5853 5853 5853 5853 5853 5854 5854 5854 5854 5854 5854 5855 5855 5856 5857 5858 5859 5859 5860 5861 5862 5863 5865 5865
5868 5867 5866 5865 5864 5863 5861 5860 5859 5857 5856 5855 5853 5852 5852 5851 5851 5850 5850 5850 5850 5850 5850 5850 5850 5851 5851 5851 5851 5851 5851 5852 5852 5853 5854 5855 5855 5856 5857 5858 5859 5861 5861
5866 5865 5864 5863 5861 5860 5859 5858 5856 5855 5854 5852 5851 5849 5848 5848 5848 5847 5847 5847 5847 5847 5847 5847 5847 5847 5847 5847 5847 5847 5848 5848 5849 5849 5850 5851 5851 5852 5853 5854 5855 5856 5857
5864 5863 5861 5860 5859 5858 5857 5855 5854 5853 5851 5849 5848 5847 5846 5845 5844 5844 5844 5843 5843 5843 5843 5843 5843 5843 5843 5843 5843 5843 5844 5844 5845 5845 5846 5846 5847 5848 5848 5850 5851 5852 5853
5861 5860 5859 5858 5857 5855 5854 5853 5851 5850 5848 5847 5845 5844 5842 5841 5841 5840 5840 5839 5839 5839 5839 5838 5839 5839 5839 5839 5839 5839 5840 5840 5840 5841 5841 5842 5843 5843 5844 5845 5846 5847 5849
5859 5858 5857 5856 5854 5853 5851 5850 5848 5847 5845 5844 5842 5841 5839 5838 5837 5837 5836 5836 5835 5835 5835 5834 5834 5834 5834 5834 5834 5835 5835 5835 5835 5836 5836 5836 5837 5838 5839 5840 5841 5842 5844
5856 5855 5854 5853 5852 5850 5848 5847 5845 5844 5842 5841 5839 5838 5836 5835 5834 5833 5832 5832 5831 5831 5830 5830 5830 5830 5830 5830 5829 5829 5830 5830 5830 5830 5831 5831 5832 5832 5833 5834 5835 5836 5838
5854 5853 5851 5850 5849 5848 5846 5844 5843 5841 5840 5838 5836 5835 5833 5832 5830 5829 5828 5827 5827 5826 5826 5826 5826 5826 5825 5825 5825 5824 5824 5824 5825 5825 5825 5826 5826 5827 5827 5828 5829 5830 5831
5851 5850 5849 5847 5846 5845 5843 5841 5840 5838 5837 5835 5834 5832 5830 5829 5827 5826 5824 5823 5823 5822 5821 5821 5821 5820 5820 5820 5820 5819 5819 5819 5819 5819 5819 5820 5820 5820 5821 5822 5822 5823 5824
5848 5847 5846 5845 5843 5842 5840 5839 5837 5836 5834 5832 5830 5828 5827 5825 5823 5822 5820 5819 5818 5817 5817 5816 5816 5815 5815 5815 5814 5814 5813 5813 5813 5813 5813 5814 5814 5814 5815 5816 5816 5816 5818
5846 5844 5843 5842 5840 5839 5838 5836 5834 5833 5831 5829 5827 5825 5823 5821 5820 5818 5816 5815 5814 5813 5812 5811 5811 5810 5810 5809 5809 5809 5808 5809 5808 5808 5808 5808 5808 5808 5809 5809 5809 5810 5811
5843 5842 5840 5839 5837 5836 5834 5833 5831 5829 5828 5826 5824 5822 5820 5818 5816 5814 5812 5811 5809 5808 5807 5807 5806 5805 5804 5804 5804 5804 5803 5803 5803 5803 5802 5802 5802 5802 5802 5802 5803 5803 5804
5841 5839 5837 5836 5834 5833 5831 5829 5827 5826 5824 5822 5820 5818 5816 5814 5812 5810 5808 5807 5805 5804 5802 5801 5800 5800 5799 5798 5798 5798 5798 5798 5797 5797 5797 5796 5796 5796 5795 5795 5796 5796 5796
5838 5836 5834 5832 5831 5829 5827 5825 5823 5822 5820 5818 5816 5813 5811 5809 5807 5805 5804 5802 5800 5799 5797 5796 5795 5793 5793 5792 5792 5792 5792 5792 5791 5791 5791 5790 5789 5789 5788 5788 5788 5788 5788
5835 5833 5831 5829 5827 5825 5823 5821 5819 5817 5815 5813 5811 5809 5807 5805 5803 5801 5799 5797 5795 5794 5792 5791 5789 5788 5787 5786 5786 5786 5786 5785 5785 5785 5785 5784 5783 5782 5782 5781 5781 5780 5780
Wind_Speed
8 8 9 9 9 8 7 7 7 7 7 7 6 6 6 6 5 5 5 5 5 6 6 7 7 7 6 6 6 6 5 5 5 5 6 7 7 7 7 7 7 8 8
8 9 9 9 9 8 7 7 7 7 7 7 6 6 6 7 7 6 6 6 6 6 7 7 7 7 7 7 7 6 6 6 6 6 7 7 7 7 6 6 7 7 8
9 9 9 9 9 9 8 8 8 7 7 7 6 6 7 7 7 7 7 7 7 7 8 8 8 9 9 8 7 7 7 7 7 7 7 7 7 7 7 6 7 7 7
9 9 9 9 9 9 9 9 9 8 8 8 7 7 8 8 8 7 7 7 7 8 8 9 9 10 10 9 9 9 9 8 8 8 7 8 8 7 7 7 7 7 8
10 10 10 9 9 9 9 9 9 9 9 8 8 9 9 8 8 8 8 8 9 9 9 10 10 11 11 11 10 10 10 10 9 8 8 9 9 9 8 8 7 7 7
9 9 9 9 9 9 9 9 9 9 9 9 9 9 9 10 9 9 9 9 9 10 11 11 10 11 12 12 11 11 10 10 10 10 10 10 10 10 9 9 8 8 7
8 8 8 8 9 9 9 9 9 8 8 9 9 9 9 10 10 10 10 10 11 11 11 11 11 11 12 13 13 12 12 12 11 11 11 11 12 11 10 10 9 9 8
8 8 8 8 9 9 9 9 8 8 8 8 8 9 10 10 10 11 11 11 11 12 12 11 12 12 12 13 13 13 13 13 12 12 12 12 13 13 12 12 11 10 10
8 9 9 9 9 9 9 9 9 9 9 9 8 8 9 10 11 11 11 12 12 12 13 13 13 13 13 13 13 13 13 13 13 13 13 14 14 14 14 14 12 12 11
8 8 8 9 9 9 9 9 9 9 10 10 9 9 10 10 11 11 12 12 13 13 14 14 14 14 13 13 14 14 14 14 14 15 14 15 16 16 15 14 14 13 13
9 8 8 8 9 9 9 9 10 10 11 11 10 10 11 11 11 12 12 13 13 13 14 14 15 14 15 15 15 15 16 17 16 16 16 16 17 18 18 16 15 15 14
9 9 9 9 9 10 10 10 10 11 12 11 11 11 11 11 12 13 13 14 14 14 14 15 15 15 15 16 16 16 17 18 18 18 18 17 18 19 18 17 17 17 16
10 9 9 9 9 10 10 10 11 12 12 11 11 11 11 11 12 13 14 15 15 15 15 15 15 15 16 16 16 16 17 18 19 19 19 19 19 19 20 20 19 19 18
10 10 9 10 10 10 10 11 11 12 12 11 11 11 11 12 13 14 14 14 15 16 15 16 16 16 16 17 16 16 17 18 18 19 20 20 20 21 22 23 21 20 19
10 10 10 9 10 10 10 11 11 12 12 11 12 11 12 12 13 14 14 15 15 15 16 16 16 16 17 17 17 17 17 19 19 19 20 21 21 22 22 23 24 23 21
11 10 10 10 11 11 11 12 13 13 13 12 12 12 12 12 13 14 14 14 15 15 15 16 17 17 16 17 18 18 18 18 19 20 20 21 22 23 23 24 24 24 22
11 10 11 11 12 12 12 12 13 13 13 12 12 12 12 12 12 12 12 13 14 15 15 16 17 17 17 16 17 18 18 18 19 19 20 21 22 23 23 23 24 25 25
10 10 11 12 12 13 13 13 12 12 12 12 12 11 12 11 12 12 13 13 13 14 15 15 16 16 18 17 17 18 19 20 20 20 21 21 22 22 23 24 25 25 25
10 10 11 12 13 13 14 13 13 12 13 13 12 12 11 11 12 13 13 13 13 14 15 16 16 17 17 17 17 18 19 20 21 21 21 22 22 22 23 25 26 26 26
11 11 12 12 13 13 13 13 13 13 13 13 12 12 12 12 12 12 13 13 14 15 15 16 16 17 17 17 18 18 19 20 20 21 21 21 22 23 24 25 26 26 27
11 12 12 12 12 12 13 13 13 13 13 13 13 13 13 13 13 13 13 14 14 15 16 16 17 17 17 17 18 18 18 19 19 20 20 21 22 22 23 25 26 26 27
11 11 12 12 13 12 12 13 13 13 13 13 13 13 13 13 13 14 14 14 15 15 15 16 16 16 17 17 18 18 18 19 19 20 21 22 23 24 24 25 26 26 27
10 11 11 12 12 12 12 13 13 14 14 14 14 14 14 14 14 14 14 14 15 15 16 16 16 17 18 18 18 18 19 19 20 21 21 22 23 24 25 26 26 27 27
10 11 12 12 13 13 13 14 14 15 15 15 15 15 15 15 15 15 15 15 15 15 16 16 16 17 18 18 19 19 19 20 20 21 22 23 24 25 25 26 27 28 28
11 12 12 12 14 14 14 14 15 16 16 16 16 16 16 16 16 16 16 16 16 16 16 16 16 16 17 17 18 19 19 19 20 21 22 23 23 24 24 25 25 26 27
13 12 12 13 14 14 15 15 16 16 17 16 16 17 17 17 17 17 16 16 16 16 16 16 16 16 17 17 17 18 18 19 19 20 21 21 22 23 24 24 25 25 24
Wind_Direction
347 350 344 342 342 338 327 321 317 312 310 305 295 289 288 287 286 281 261 257 252 242 237 236 237 230 222 217 215 216 215 215 212 203 199 204 203 200 196 195 195 194 195
340 340 339 338 337 334 326 319 315 312 308 302 296 286 280 280 281 277 262 260 255 250 248 243 240 238 234 228 224 223 220 219 220 218 212 208 206 205 201 197 200 199 198
336 334 334 333 331 329 322 316 312 311 306 298 292 285 281 280 280 277 268 260 256 254 251 246 243 243 241 236 234 232 229 227 227 229 223 225 219 217 215 208 208 208 203
333 331 332 330 327 324 318 313 310 307 302 293 287 283 279 278 277 274 265 258 258 255 251 250 247 248 245 242 242 240 236 232 229 227 227 227 222 216 216 215 213 213 210
329 330 330 330 324 320 316 312 305 302 295 288 285 278 274 273 271 269 267 261 256 253 250 250 250 250 250 248 247 244 241 233 231 230 230 227 225 221 215 214 215 214 215
324 329 330 330 325 321 316 309 305 302 295 290 285 277 271 268 265 265 266 263 259 254 253 252 254 251 251 251 251 248 244 239 236 233 232 229 228 223 220 217 218 217 217
321 326 326 325 327 324 317 311 308 306 299 291 285 276 270 266 263 262 265 264 263 257 253 253 254 250 251 253 252 249 246 243 240 237 235 233 231 224 224 223 221 220 222
320 323 321 320 321 320 317 317 313 309 304 296 288 277 268 265 263 262 264 263 262 261 258 255 253 252 250 250 251 250 248 245 245 242 239 237 234 232 231 229 228 225 226
324 322 320 318 318 317 315 315 312 307 303 300 293 283 272 268 266 264 263 262 263 264 264 263 260 258 255 254 252 251 248 246 247 244 242 241 238 238 238 234 233 231 231
318 317 317 319 318 318 316 311 311 309 306 301 296 287 278 273 269 263 263 263 265 264 263 264 264 260 259 256 255 253 251 249 247 244 244 243 241 241 242 239 237 236 238
314 316 315 315 316 313 311 309 310 310 309 303 297 291 282 273 268 265 264 266 266 264 262 262 263 262 260 256 253 252 252 251 249 247 248 245 244 244 244 243 241 240 240
310 314 314 312 314 313 310 312 311 311 310 307 301 290 282 275 272 267 265 268 268 266 266 264 262 263 262 260 257 256 255 254 253 249 249 248 246 245 245 243 243 242 243
306 310 309 309 309 312 314 313 313 314 310 310 306 288 281 276 275 272 270 271 269 268 268 266 265 266 265 264 260 257 257 256 255 252 250 249 247 246 245 244 245 245 246
303 302 307 308 310 312 314 313 314 314 309 310 309 295 286 282 278 276 272 271 269 268 268 268 267 266 266 266 263 260 259 258 257 254 252 249 248 247 244 244 245 246 246
301 302 308 308 311 312 311 312 312 312 308 308 308 304 289 286 283 278 275 273 271 269 268 267 268 269 268 267 265 262 262 261 261 257 253 251 250 249 247 245 246 247 247
304 306 308 310 311 310 312 312 310 308 305 304 304 305 301 292 287 284 280 278 273 271 270 267 267 267 267 266 265 262 262 262 262 261 258 256 252 249 250 249 247 246 246
305 307 308 307 310 309 307 309 310 310 307 307 308 308 307 295 287 283 279 277 275 274 272 268 267 267 267 268 268 265 261 260 261 261 260 257 255 250 248 249 248 247 247
303 307 310 308 309 309 309 306 309 310 309 308 310 311 306 297 286 284 281 279 278 274 272 271 268 270 269 269 268 265 261 259 261 261 260 258 256 253 250 250 249 248 248
306 310 311 307 307 306 310 310 311 310 309 307 306 305 300 295 288 287 285 283 281 277 273 271 268 269 269 269 269 267 263 260 261 262 262 260 258 256 254 252 251 250 249
310 313 312 306 304 305 306 311 312 312 310 308 305 305 301 300 297 290 288 286 283 279 274 273 272 270 269 270 270 269 265 261 262 263 263 261 258 256 256 255 254 250 250
313 313 310 306 302 302 302 305 306 308 309 310 306 304 301 299 299 294 284 285 284 279 276 277 276 272 271 272 271 269 266 264 263 262 262 261 260 259 258 256 256 254 254
312 310 307 304 300 299 300 303 305 305 305 305 304 303 301 301 300 299 291 288 286 284 280 279 278 274 272 272 270 269 267 265 264 264 265 263 261 262 262 260 257 257 255
311 311 311 309 303 301 302 304 307 308 306 305 304 303 304 305 302 301 298 292 285 284 283 282 280 275 273 272 270 268 265 265 266 266 265 264 263 263 263 262 258 256 255
314 314 314 311 306 303 303 303 306 306 303 302 303 303 304 303 300 298 296 294 290 287 284 282 281 277 274 272 269 268 267 267 267 268 267 267 266 265 265 263 262 258 256
313 315 316 313 308 305 305 306 307 305 303 301 301 303 304 303 301 298 295 295 295 293 290 285 283 281 277 273 271 269 269 269 268 268 268 269 269 268 267 264 263 260 257
312 311 313 315 312 308 307 306 307 305 304 304 303 304 304 304 302 300 299 298 296 294 290 288 285 281 280 276 274 273 272 271 270 268 267 267 269 269 268 267 265 262 258